Nantucket, MA

6:43 AM EDT on April 24, 2017 (GMT -0400)
Nantucket Memorial

Weather History for KACK - January, 2014

Change the Weather History Date:

Wednesday, January 1, 2014

  Actual Average Record
Temperature  
Mean Temperature 28 °F -  
Max Temperature 30 °F 41 °F 53 °F (1958)
Min Temperature 25 °F 27 °F 10 °F (2009)
Degree Days  
Heating Degree Days 38    
Moisture  
Dew Point 10 °F    
Average Humidity 47    
Maximum Humidity 60    
Minimum Humidity 35    
Precipitation  
Precipitation 0.00 in - - ()
Sea Level Pressure  
Sea Level Pressure 30.33 in    
Wind  
Wind Speed 13 mph (WNW)    
Max Wind Speed 24 mph    
Max Gust Speed 33 mph    
Visibility 10 miles    
Events      
Averages and records for this station are not official NWS values.
T = Trace of Precipitation, MM = Missing Value Source: NWS Daily Summary

Daily Weather History Graph

Daily Weather History Graph

Search for Another Location

Airport or City:

Trip Planner

Search our weather history database for the weather conditions in past years. The results will help you decide how hot, cold, wet, or windy it might be!

Date:

Astronomy

Jan. 01, 2014 Rise Set
Actual Time 7:05 AM EST 4:21 PM EST
Civil Twilight 6:34 AM EST 4:53 PM EST
Nautical Twilight 6:00 AM EST 5:27 PM EST
Astronomical Twilight 5:26 AM EST 6:01 PM EST
Moon 6:52 AM EST (1/1) 5:03 PM EST (1/1)
Length of Visible Light 10h 18m
Length of Day
9h 16m
New Moon, 0% of the Moon is Illuminated
Jan 1
New Moon
Jan 7
First Quarter
Jan 15
Full
Jan 24
Last Quarter
Jan 30
New

Hourly Weather History & Observations

Time (EST) Temp. Windchill Dew Point Humidity Pressure Visibility Wind Dir Wind Speed Gust Speed Precip Events Conditions
12:53 AM 28.0 °F 17.5 °F 12.9 °F 53% 30.20 in 10.0 mi WNW 12.7 mph 20.7 mph N/A   Clear
1:53 AM 27.0 °F 15.2 °F 10.0 °F 49% 30.23 in 10.0 mi WNW 15.0 mph - N/A   Clear
2:53 AM 26.1 °F 14.0 °F 10.9 °F 53% 30.26 in 10.0 mi WNW 15.0 mph 24.2 mph N/A   Clear
3:53 AM 26.1 °F 12.7 °F 7.0 °F 44% 30.27 in 10.0 mi WNW 18.4 mph 25.3 mph N/A   Clear
4:53 AM 25.0 °F 9.5 °F 5.0 °F 43% 30.30 in 10.0 mi NW 24.2 mph 31.1 mph N/A   Clear
5:53 AM 25.0 °F 10.6 °F 6.1 °F 45% 30.31 in 10.0 mi NW 20.7 mph 33.4 mph N/A   Clear
6:53 AM 25.0 °F 13.1 °F 7.0 °F 46% 30.34 in 10.0 mi WNW 13.8 mph 21.9 mph N/A   Clear
7:53 AM 27.0 °F 15.2 °F 5.0 °F 39% 30.35 in 10.0 mi WNW 15.0 mph - N/A   Clear
8:53 AM 28.9 °F 17.7 °F 3.9 °F 35% 30.37 in 10.0 mi WNW 15.0 mph 24.2 mph N/A   Clear
9:53 AM 28.9 °F 17.7 °F 3.9 °F 35% 30.38 in 10.0 mi WNW 15.0 mph - N/A   Clear
10:53 AM 30.0 °F 18.3 °F 6.1 °F 36% 30.37 in 10.0 mi WNW 17.3 mph 23.0 mph N/A   Clear
11:53 AM 30.9 °F 21.2 °F 8.1 °F 38% 30.35 in 10.0 mi WNW 12.7 mph 21.9 mph N/A   Clear
12:53 PM 30.0 °F 20.5 °F 9.0 °F 41% 30.34 in 10.0 mi West 11.5 mph 18.4 mph N/A   Mostly Cloudy
1:53 PM 30.9 °F 22.8 °F 12.9 °F 47% 30.34 in 10.0 mi West 9.2 mph - N/A   Overcast
2:53 PM 30.9 °F 21.2 °F 15.1 °F 52% 30.34 in 10.0 mi West 12.7 mph - N/A   Scattered Clouds
3:53 PM 30.0 °F 21.7 °F 14.0 °F 51% 30.34 in 10.0 mi West 9.2 mph - N/A   Clear
4:53 PM 28.9 °F 21.1 °F 12.0 °F 49% 30.34 in 10.0 mi WNW 8.1 mph - N/A   Mostly Cloudy
5:53 PM 28.9 °F 21.1 °F 10.9 °F 47% 30.35 in 10.0 mi NW 8.1 mph - N/A   Overcast
6:53 PM 28.9 °F 21.1 °F 10.9 °F 47% 30.37 in 10.0 mi NW 8.1 mph - N/A   Overcast
7:53 PM 28.0 °F - 10.9 °F 49% 30.36 in 10.0 mi Calm Calm - N/A   Clear
8:53 PM 27.0 °F - 12.9 °F 56% 30.37 in 10.0 mi Calm Calm - N/A   Partly Cloudy
9:53 PM 26.1 °F - 14.0 °F 60% 30.37 in 10.0 mi Calm Calm - N/A   Scattered Clouds
10:53 PM 26.1 °F 20.5 °F 14.0 °F 60% 30.36 in 10.0 mi NE 4.6 mph - N/A   Partly Cloudy
11:53 PM 28.0 °F 21.7 °F 12.0 °F 51% 30.35 in 10.0 mi NNE 5.8 mph - N/A   Overcast